Weather History for London, United Kingdom

Change the Weather History Date:

Tuesday, February 7, 2012

  Actual Average Record
Temperature  
Mean Temperature 32 °F -  
Max Temperature 39 °F 47 °F 55 °F (2008)
Min Temperature 26 °F 36 °F 23 °F (2007)
Degree Days  
Heating Degree Days 32    
Moisture  
Dew Point 26 °F    
Average Humidity 73    
Maximum Humidity 96    
Minimum Humidity 44    
Precipitation  
Precipitation 0.00 in - - ()
Sea Level Pressure  
Sea Level Pressure 30.71 in    
Wind  
Wind Speed 5 mph ()    
Max Wind Speed 14 mph    
Max Gust Speed -    
Visibility 5.8 miles    
Events Rain , Snow    
Averages and records for this station are not official NWS values.
T = Trace of Precipitation, MM = Missing Value Source: Averaged Metar Reports

Daily Weather History Graph

Daily Weather History Graph

Search for Another Location

Airport:

Trip Planner

Search our weather history database for the weather conditions in past years. The results will help you decide how hot, cold, wet, or windy it might be!

Date:

Astronomy

Feb. 07, 2012 Rise Set
Actual Time 7:31 AM GMT 5:01 PM GMT
Civil Twilight 6:55 AM GMT 5:36 PM GMT
Nautical Twilight 6:16 AM GMT 6:16 PM GMT
Astronomical Twilight 5:37 AM GMT 6:55 PM GMT
Moon 5:00 PM GMT (2/7) 6:49 AM GMT (2/7)
Length of Visible Light 10h 40m
Length of Day
9h 29m
Full, 100% of the Moon is Illuminated
Feb 7
Full
Feb 7
Full
Feb 14
Last Quarter
Feb 21
New
Mar 1
First Quarter

Hourly Weather History & Observations

Time (GMT) Temp. Windchill Dew Point Humidity Pressure Visibility Wind Dir Wind Speed Gust Speed Precip Events Conditions
12:20 AM 37.4 °F 34.9 °F 33.8 °F 87% 30.60 in - North 3.5 mph - N/A   Haze
12:50 AM 37.4 °F - 33.8 °F 87% 30.60 in - North 2.3 mph - N/A   Haze
1:20 AM 37.4 °F - 33.8 °F 87% 30.60 in 1.7 mi Variable 2.3 mph - N/A   Haze
1:50 AM 37.4 °F 34.9 °F 33.8 °F 87% 30.60 in 1.7 mi North 3.5 mph - N/A   Haze
2:20 AM 35.6 °F 32.8 °F 33.8 °F 93% 30.60 in - North 3.5 mph - N/A   Haze
2:50 AM 36 °F - 34 °F 91% 30.61 in 2 mi North 4.6 mph - - Rain Light Rain Showers
2:50 AM 35.6 °F 31.7 °F 33.8 °F 93% 30.60 in - North 4.6 mph - N/A Rain , Snow Light Rain
3:20 AM 35.6 °F 30.7 °F 33.8 °F 93% 30.60 in 1.5 mi North 5.8 mph - N/A Rain , Snow Light Rain
3:50 AM 35.6 °F 32.8 °F 33.8 °F 93% 30.60 in 1.6 mi Variable 3.5 mph - N/A Rain , Snow Light Rain
4:20 AM 35.6 °F 32.8 °F 33.8 °F 93% 30.60 in - Variable 3.5 mph - N/A Rain Light Rain
4:50 AM 35.6 °F 32.8 °F 33.8 °F 93% 30.63 in - Variable 3.5 mph - N/A   Haze
5:20 AM 35.6 °F 32.8 °F 33.8 °F 93% 30.63 in - NE 3.5 mph - N/A   Haze
5:50 AM 35 °F - 34 °F 96% 30.63 in 4 mi NE 4.6 mph - -   Unknown Precipitation
5:50 AM 35.6 °F 31.7 °F 33.8 °F 93% 30.63 in - ENE 4.6 mph - N/A   Haze
6:20 AM 33.8 °F 28.6 °F 32.0 °F 93% 30.63 in 3.7 mi East 5.8 mph - N/A   Mostly Cloudy
6:50 AM 33.8 °F 27.7 °F 30.2 °F 87% 30.66 in 5.0 mi East 6.9 mph - N/A   Overcast
7:20 AM 33.8 °F 29.6 °F 30.2 °F 87% 30.66 in 5.0 mi East 4.6 mph - N/A   Overcast
7:50 AM 33.8 °F 29.6 °F 30.2 °F 87% 30.66 in 4.3 mi East 4.6 mph - N/A   Mostly Cloudy
8:20 AM 33.8 °F 28.6 °F 30.2 °F 87% 30.69 in 5.0 mi East 5.8 mph - N/A   Mostly Cloudy
8:50 AM 35 °F - 31 °F 79% 30.70 in 4 mi East 6.9 mph - -   Light Haze
8:50 AM 35.6 °F 29.9 °F 30.2 °F 81% 30.69 in 5.0 mi East 6.9 mph - N/A   Mostly Cloudy
9:20 AM 35.6 °F 31.7 °F 30.2 °F 81% 30.69 in 5.6 mi ESE 4.6 mph - N/A   Mostly Cloudy
9:50 AM 35.6 °F 31.7 °F 28.4 °F 75% 30.71 in 5.6 mi ESE 4.6 mph - N/A   Scattered Clouds
10:20 AM 35.6 °F 29.9 °F 28.4 °F 75% 30.71 in 6.2 mi East 6.9 mph - N/A   Mostly Cloudy
10:50 AM 37.4 °F 32.8 °F 28.4 °F 70% 30.71 in 6.2 mi East 5.8 mph - N/A   Scattered Clouds
11:20 AM 37.4 °F 32.8 °F 28.4 °F 70% 30.71 in 5.6 mi East 5.8 mph - N/A   Partly Cloudy
11:50 AM 38 °F - 27 °F 53% 30.74 in 6 mi East 5.8 mph - -   Light Haze
11:50 AM 37.4 °F 32.1 °F 26.6 °F 65% 30.71 in 6.2 mi East 6.9 mph - N/A   Partly Cloudy
12:20 PM 39.2 °F 35.0 °F 24.8 °F 56% 30.71 in 6.2 mi ENE 5.8 mph - N/A   Partly Cloudy
12:50 PM 39.2 °F 33.6 °F 24.8 °F 56% 30.71 in 6.2 mi East 8.1 mph - N/A   Partly Cloudy
1:20 PM 39.2 °F 34.2 °F 24.8 °F 56% 30.74 in 6.2 mi East 6.9 mph - N/A   Partly Cloudy
1:50 PM 37.4 °F 32.1 °F 24.8 °F 60% 30.74 in 6.2 mi ENE 6.9 mph - N/A   Scattered Clouds
2:20 PM 37.4 °F 31.4 °F 21.2 °F 52% 30.74 in 6.2 mi ENE 8.1 mph - N/A   Scattered Clouds
2:50 PM 37 °F - 23 °F 44% 30.74 in 7 mi ENE 9.2 mph - -   Scattered Clouds
2:50 PM 37.4 °F 30.8 °F 21.2 °F 52% 30.74 in 6.2 mi ENE 9.2 mph - N/A   Partly Cloudy
3:20 PM 35.6 °F 28.0 °F 23.0 °F 60% 30.74 in 6.2 mi ENE 10.4 mph - N/A   Partly Cloudy
3:50 PM 33.8 °F 25.8 °F 23.0 °F 65% 30.74 in 6.2 mi East 10.4 mph - N/A   Scattered Clouds
4:20 PM 32.0 °F 24.2 °F 23.0 °F 69% 30.74 in 6.2 mi East 9.2 mph - N/A   Partly Cloudy
4:50 PM 32.0 °F 24.2 °F 21.2 °F 64% 30.74 in 6.2 mi ENE 9.2 mph - N/A   Partly Cloudy
5:20 PM 30.2 °F 20.8 °F 21.2 °F 69% 30.77 in - ENE 11.5 mph - N/A   Clear
5:50 PM 29 °F - 18 °F 51% 30.79 in 10 mi ENE 9.2 mph - -  
5:50 PM 30.2 °F 20.2 °F 17.6 °F 60% 30.77 in - East 12.7 mph - N/A   Clear
6:20 PM 28.4 °F 17.5 °F 17.6 °F 64% 30.77 in - ENE 13.8 mph - N/A   Clear
6:50 PM 28.4 °F 19.7 °F 15.8 °F 59% 30.80 in - ENE 9.2 mph - N/A   Clear
7:20 PM 26.6 °F 15.7 °F 15.8 °F 64% 30.80 in - ENE 12.7 mph - N/A   Clear
7:50 PM 26.6 °F 16.2 °F 15.8 °F 64% 30.80 in - ENE 11.5 mph - N/A   Clear
8:20 PM 26.6 °F 16.8 °F 15.8 °F 64% 30.80 in - ENE 10.4 mph - N/A   Clear
8:50 PM 26 °F - 17 °F 56% 30.82 in 14 mi NE 5.8 mph - -   Partly Cloudy
8:50 PM 26.6 °F 19.1 °F 15.8 °F 64% 30.80 in 6.2 mi ENE 6.9 mph - N/A   Partly Cloudy
9:20 PM 26.6 °F 19.1 °F 15.8 °F 64% 30.80 in 6.2 mi NE 6.9 mph - N/A   Scattered Clouds
9:50 PM 26.6 °F 21.2 °F 15.8 °F 64% 30.80 in 6.2 mi NE 4.6 mph - N/A   Partly Cloudy
10:20 PM 26.6 °F 21.2 °F 17.6 °F 69% 30.80 in 6.2 mi North 4.6 mph - N/A   Scattered Clouds
10:50 PM 26.6 °F 20.0 °F 17.6 °F 69% 30.80 in 6.2 mi North 5.8 mph - N/A   Mostly Cloudy
11:20 PM 26.6 °F 19.1 °F 17.6 °F 69% 30.80 in 6.2 mi NNE 6.9 mph - N/A   Mostly Cloudy
11:50 PM 27 °F - 18 °F 58% 30.80 in 15 mi North 6.9 mph - -   Overcast
11:50 PM 26.6 °F 20.0 °F 17.6 °F 69% 30.80 in 6.2 mi North 5.8 mph - N/A   Mostly Cloudy